289  
ASUS42 KTAE 201215  
RWRTAE  
RWRTAE  
NORTH FLORIDA/SOUTH ALABAMA/SOUTHWEST GEORGIA WEATHER ROUNDUP  
NATIONAL WEATHER SERVICE TALLAHASSEE FLORIDA  
800 AM EDT SAT APR 20 2019  
 
NOTE: "FAIR" INDICATES FEW OR NO CLOUDS BELOW 12,000 FEET WITH NO  
SIGNIFICANT WEATHER AND/OR S TO VISIBILITY
.  
 
!FLZ017-115-028-034-025-201300   
..NORTH FLORIDA
 
 
 
CITY SKY/WX TMP DP RH WIND PRES REMARKS
 
TALL INTL ARPT FAIR 50 43 77 W14 29.91R WCI 45  
FSU LOVE BLDG N/A N/A N/A N/A MISG N/A  
APALACHICOLA FAIR 53 40 61 NW14 29.94R  
PERRY FAIR 53 43 69 W13 29.92R  
CROSS CITY LGT RAIN 53 51 91 W7 29.91R  
JACKSONVILLE FAIR 55 49 80 W10 29.87R  

 
 
!FLZ112-006-005-002-011-201300   
..FLORIDA PANHANDLE
 
 
 
CITY SKY/WX TMP DP RH WIND PRES REMARKS
 
MARIANNA FAIR 49 43 80 W16 29.89R WCI 43  
BONIFAY NOT AVBL  
PANAMA CITY NW FAIR 50 43 77 S5 29.92R  
TYNDALL AFB FAIR 53 42 67 NW8 29.94R  
TYND DRONE APT NOT AVBL  
DE FUNIAK SPR NOT AVBL  
EGLIN AFB FAIR 51 43 74 W6 29.91R  
DESTIN CLOUDY 56 42 59 VRB5 29.92R  
HURLBURT PTCLDY 54 46 76 W8 29.91R  
CRESTVIEW FAIR 48 42 80 SW8 29.92R WCI 44  
PENSACOLA FAIR 54 46 74 W9 29.93R  

 
 
!ALZ063-066-201300   
..SOUTH ALABAMA
 
 
 
CITY SKY/WX TMP DP RH WIND PRES REMARKS
 
DOTHAN FAIR 47 41 80 SW13 29.89R WCI 41  
OZARK CAIRNS MOCLDY 47 42 85 SW9 29.87R WCI 42  
FT RUCKER HELI CLOUDY 47 44 88 SW7 29.86R WCI 44  
RUCKER HELI 3 MOCLDY 46 43 88 W7 29.86R WCI 43  
RUCKER HELI 2 FAIR 47 44 91 SW6 29.86R WCI 44  
FLORALA APT FAIR 47 41 80 VRB6 29.91R WCI 44  
ANDALUSIA FAIR 50 42 74 SW9 29.87R  
TROY FAIR 47 42 83 SW9 29.84R WCI 43  
EUFALA NOT AVBL  
MOBILE FAIR 49 44 83 SW3 29.95R  

 
 
!GAZ120>161-201300   
..SOUTHWEST AND SOUTH CENTRAL GEORGIA
 
 
 
CITY SKY/WX TMP DP RH WIND PRES REMARKS
 
THOMASVILLE FAIR 48 43 81 W6 29.89R  
BAINBRIDGE N/A 50 41 71 MISG 29.88R  
MOODY AFB FAIR 51 45 80 W13G21 29.85R  
VALDOSTA FAIR 51 46 83 SW7 29.87R  
MOULTRIE PTSUNNY 50 43 76 SW12 29.87R  
BLAKELY FAIR 46 41 81 W9 29.87R WCI 42  
ALBANY PTSUNNY 49 41 74 SW9 29.87R WCI 45  
TIFTON FAIR 49 41 74 W10G16 29.84 WCI 45  
FITZGERALD FAIR 51 44 77 SW9 29.85R  
CORDELE CLOUDY 48 42 79 W16 29.83R WCI 42  
AMERICUS PTSUNNY 50 43 76 SW10 29.82R  
HOMERVILLE NOT AVBL  

 
 
!GMZ750-755-770-775-201300   
..COASTAL AND BUOY OBS
 
 
 
STATION/POSITION TIME TEMP WIND PRES VSBY WAVE
 
AIR SEA DIR/SP/G HT/PER  
(UTC) (F) (DEG/KT/KT) (MB) (MI) (FT/S)  
KEATON BEACH 1200 58 280/ 20/ 27 1012.9R  
CEDAR KEY 1200 63 270/ 14/ 19 1012.7R  
C TOWER NOT AVBL  
APALACHICOLA BUO NOT AVBL  
PANAMA CITY BUOY NOT AVBL  
MOBILE BUOY 1200 260/ 17/ 21 1015.6  
ORANGE BCH AL BU 1200 1014.2  

 
 
 
CLICK HERE TO GO TO PREVIOUS BULLETINS.

The Nexlab FL Page
The Nexlab GA Page
The Nexlab AL Page Main Text Page